Content
SEND FEEDBACK

Daily
Averages
Monthly
Summary
Germany

WURZBURG, GERMANY


Home > Europe > Germany
Elevation: 850 feet     Latitude: 49 48N     Longitude: 009 54E

WEATHER
 
SELECT A DAY
Number of Records: 80,794;   Date Range: 2/20/97 - 12/15/14
 
SHARE

PRINT THIS DATA

[ ← Previous Day ]
WEATHER ALMANAC - AUGUST 18, 2014
[ Next Day → ]
[ °C ]   °F
Weather ElementAverageHighLow
Temperature60.6 °F68 °F (10:00 pm)51.8 °F (4:20 am)
Dewpoint50.1 °F53.6 °F (4:20 am)48 °F (8:00 pm)
Humidity65.6 %88 % (2:20 am)40 % (5:00 pm)
Barometer29.88 in29.92 in (9:20 am)29.82 in (11:00 pm)
Wind Speed7.6 mph16.1 mph (9:20 am)
Weather ElementAverage
Visibility10.9 mi
Wind DirectionWSW (238.1 °)

Weather ElementTotal
Precipitation---
Heating Degree Days5.1 (Base 65)
Growing Degree Days9.9 (Base 50)
Averaged from 48 records on August 18, 2014
WEATHER CONDITIONS BREAKOUT
WIND DIRECTION BREAKOUT
WEATHER BY HOUR - AUGUST 18, 2014
[ °C ]   °F
Local TimeTemperatureDewpointHumidityBarometerVisibilityWind DirectionWind SpeedGust SpeedPrecipitationEventsConditions
12:00 AM58.0 °F50.0 °F68 %29.91 in2.0 miSW (220°)4.5 mph
12:20 AM57.2 °F50.0 °F77 %29.92 inSSW (210°)4.6 mph
1:00 AM56.0 °F49.0 °F71 %29.91 in2.0 miSW (220°)6.7 mph
1:20 AM55.4 °F48.2 °F77 %29.92 inSW (230°)4.6 mph
2:00 AM56.0 °F49.0 °F71 %29.91 in2.0 miSW (220°)4.5 mph
2:20 AM55.4 °F50.0 °F82 %29.89 inSW (220°)5.8 mph
3:00 AM54.0 °F49.0 °F78 %29.91 in2.0 miSW (220°)4.5 mph
3:20 AM53.6 °F50.0 °F88 %29.89 in2.2 miSW (220°)3.5 mph
4:00 AM54.0 °F49.0 °F77 %29.91 in2.0 miSW (230°)2.2 mph
4:20 AM51.8 °F48.2 °F88 %29.89 in2.2 miSSW (200°)4.6 mph
5:00 AM54.0 °F49.0 °F77 %29.90 in2.0 miSW (220°)4.5 mph
5:20 AM53.6 °F48.2 °F82 %29.89 in6.2 miSSW (210°)3.5 mphFogPartly Cloudy
6:00 AM52.0 °F48.0 °F82 %29.90 in19.0 miSSW (210°)4.5 mphScattered Clouds
6:20 AM51.8 °F48.2 °F88 %29.89 in6.2 miCalmScattered Clouds
7:00 AM52.0 °F48.0 °F83 %29.89 in19.0 miNE (50°)2.2 mphScattered Clouds
7:20 AM53.6 °F50.0 °F88 %29.89 in6.2 miVariable1.2 mphMostly Cloudy
8:00 AM56.0 °F51.0 °F76 %29.88 in19.0 miEast (80°)2.2 mphPartly Cloudy
8:20 AM57.2 °F51.8 °F82 %29.89 in6.2 miCalmMostly Cloudy
9:00 AM59.0 °F51.0 °F68 %29.88 in22.0 miWNW (290°)2.2 mphMostly Cloudy
9:20 AM60.8 °F51.8 °F72 %29.89 in6.2 miWest (270°)4.6 mphMostly Cloudy
10:00 AM62.0 °F53.0 °F64 %29.87 in22.0 miWest (260°)6.7 mphMostly Cloudy
10:20 AM64.4 °F53.6 °F68 %29.89 in6.2 miWest (270°)13.8 mphMostly Cloudy
11:00 AM64.0 °F53.0 °F58 %29.86 in25.0 miWest (260°)13.4 mphScattered Clouds
11:20 AM62.6 °F51.8 °F68 %29.86 in6.2 miWest (260°)12.7 mphMostly Cloudy
12:00 PM63.0 °F53.0 °F60 %29.86 in25.0 miWSW (250°)8.9 mphScattered Clouds
12:20 PM66.2 °F53.6 °F64 %29.86 in6.2 miWest (260°)11.5 mphMostly Cloudy
1:00 PM66.0 °F51.0 °F48 %29.84 in25.0 miWest (260°)13.4 mphPartly Cloudy
1:20 PM66.2 °F51.8 °F60 %29.86 in6.2 miWest (260°)12.7 mphMostly Cloudy
2:00 PM67.0 °F52.0 °F48 %29.83 in25.0 miWNW (300°)11.2 mphPartly Cloudy
2:20 PM66.2 °F51.8 °F60 %29.86 in6.2 miWNW (300°)10.4 mphMostly Cloudy
3:00 PM67.0 °F50.0 °F45 %29.82 in25.0 miWNW (290°)11.2 mphScattered Clouds
3:20 PM68.0 °F51.8 °F56 %29.83 in6.2 miWest (260°)15.0 mphMostly Cloudy
4:00 PM68.0 °F50.0 °F43 %29.82 in25.0 miWNW (290°)11.2 mphScattered Clouds
4:20 PM68.0 °F50.0 °F52 %29.86 in6.2 miWest (280°)15.0 mphScattered Clouds
5:00 PM68.0 °F49.0 °F40 %29.82 in25.0 miWest (270°)15.7 mphPartly Cloudy
5:20 PM68.0 °F48.2 °F49 %29.86 in6.2 miWest (270°)16.1 mphMostly Cloudy
6:00 PM67.0 °F48.0 °F40 %29.82 in25.0 miWNW (300°)11.2 mphPartly Cloudy
6:20 PM66.2 °F50.0 °F56 %29.86 in6.2 miNW (310°)6.9 mphMostly Cloudy
7:00 PM66.0 °F49.0 °F44 %29.84 in25.0 miWNW (300°)8.9 mphPartly Cloudy
7:20 PM64.4 °F50.0 °F59 %29.86 inNW (310°)8.1 mph
8:00 PM64.0 °F48.0 °F46 %29.86 in2.0 miWNW (290°)11.2 mph
8:20 PM64.4 °F48.2 °F56 %29.89 inWest (280°)9.2 mph
9:00 PM62.0 °F48.0 °F49 %29.87 in2.0 miWNW (300°)6.7 mph
9:20 PM62.6 °F50.0 °F63 %29.89 inNNW (330°)6.9 mph
10:00 PM60.0 °F50.0 °F61 %29.91 in2.0 miNNW (340°)8.9 mph
10:20 PM59.0 °F50.0 °F72 %29.92 inWNW (300°)5.8 mph
11:00 PM58.0 °F50.0 °F68 %29.91 in2.0 miWSW (250°)4.5 mph
11:20 PM57.2 °F50.0 °F77 %29.92 inWest (260°)8.1 mph
Hourly data recorded from ETSI, located miles away from Wurzburg, Germany







STORIES FROM OUR PARTNERS